Location: Newark
(41.6500°N, 71.4833°W)
Time: 00:57:59
(UTC+00:00)

deb Explorer IX - Pass Details

Date: 25 January 2020
Orbit: 549 x 1099 km, 38.8° (Epoch: 20 February)

Event Time Altitude Azimuth Distance (km) Brightness Sun altitude
Rises 04:20:42 0° 259° (W) 3,844 - -66.1°
Reaches altitude 10° 04:23:24 10° 258° (WSW) 2,922 - -66.3°
Maximum altitude 04:30:38 71° 176° (S) 1,154 - -66.7°
Drops below altitude 10° 04:37:45 10° 94° (E) 2,877 - -67.0°
Sets 04:40:24 0° 92° (E) 3,783 - -67.1°
